[[{"header":{"parameterUnit":"m.s-1","parameterCategory":1,"la1":30.2992,"la2":30.254,"lo1":-89.0895,"lo2":-89.0443,"dy":0.0025,"dx":0.0025,"nx":19,"ny":19,"refTime":"2026-04-02T09:00:00:Z","depth":0,"parameterNumber":2,"parameterNumberName":"U-component_of_WINDS"},"data":[0,0,0,-4.9974,-4.9978,-5.0156,-5.0157,-5.0383,-5.0385,0,0,0,0,0,0,0,0,0,0,0,-4.9922,-4.9923,-4.9974,-4.9978,-5.0156,-5.0157,-5.0383,-5.0385,0,0,0,0,0,0,0,0,0,0,0,-4.9921,-4.9923,-4.9925,-4.9979,-5.0156,-5.0157,-5.0382,-5.0248,0,0,0,0,0,0,0,0,0,0,-5.0076,-5.0028,-4.9922,-4.9925,-4.998,-5.0155,-5.0157,-5.0242,-5.0257,-5.0303,0,-5.0344,0,-5.0369,-5.0401,-5.0401,0,0,0,-4.9978,-5.0015,-5.0063,-4.9925,-4.9982,-5.0155,-5.0076,-5.025,-5.0267,-5.0322,-5.0348,-5.0356,-5.0372,-5.0402,-5.0403,-5.0672,-5.0673,0,0,-4.9968,-4.9954,-5.0052,-5.0074,-5.0048,-5.007,-5.0081,-5.026,-5.0286,-5.0348,-5.0361,-5.0376,-5.0404,-5.0405,-5.0671,-5.0672,0,0,0,-4.994,-4.9947,-4.999,-5.0065,-5.0097,-5.0075,-5.0088,-5.0278,-5.0294,-5.0364,-5.0379,-5.0405,-5.0408,-5.067,-5.0672,-5.072,0,0,0,-4.9934,-4.9931,-4.9986,-4.9979,-5.0094,-5.019,-5.0102,-5.0282,-5.0302,-5.0378,-5.0405,-5.041,-5.0668,-5.0671,-5.0715,-5.0744,0,0,0,-4.991,-4.9928,-4.9954,-4.9978,-5.0054,-5.0188,-5.0213,-5.0286,-5.0312,-5.0402,-5.041,-5.0667,-5.067,-5.0712,-5.0738,-5.081,0,0,0,-4.988,-4.9994,-4.9954,-5.0088,-5.0052,-5.0217,-5.0212,-5.0336,-5.0419,-5.0406,-5.0668,-5.0671,-5.071,-5.0734,-5.0806,-5.0866,-5.0891,0,0,-5.0015,-5.001,-5.0089,-5.0059,-5.0227,-5.0191,-5.0367,-5.0456,-5.0478,-5.0606,-5.0613,-5.0717,-5.0737,-5.0809,-5.1037,-5.1056,0,0,0,-5.0127,-5.0184,-5.0232,-5.0311,-5.0383,-5.0447,-5.0511,-5.0545,-5.0655,-5.0541,-5.0764,-5.0777,-5.0819,-5.0849,-5.0865,-5.0902,-5.0685,-5.0685,-5.0684,-5.0296,-5.0319,-5.0452,-5.0497,-5.0574,-5.064,-5.0704,-5.0761,-5.076,-5.0813,-5.085,-5.0986,-5.102,-5.1032,-5.107,-5.0886,-5.0886,-5.0886,-5.0887,-5.0495,-5.0579,-5.0578,-5.0706,-5.073,-5.0838,-5.0907,-5.0904,-5.1007,-5.0959,-5.0998,-5.0941,-5.1053,-5.1087,-5.0891,-5.089,-5.0889,-5.0889,-5.0889,-5.0607,-5.065,-5.0691,-5.0808,-5.0896,-5.0938,-5.1038,-5.1056,-5.1074,-5.1112,-5.1153,-5.1152,-5.1152,-5.1131,-5.1131,-5.1132,-5.1132,-5.1132,-5.1133,-5.0705,-5.0749,-5.0831,-5.0919,-5.0972,-5.1045,-5.1115,-5.1168,-5.1231,-5.1236,-5.1237,-5.123,-5.1061,-5.1016,-5.114,-5.1139,-5.1138,-5.1137,-5.1137,-5.0894,-5.0855,-5.0981,-5.1035,-5.114,-5.1226,-5.1249,-5.1356,-5.1403,-5.1452,-5.1439,-5.1311,-5.1306,-5.1293,-5.1256,-5.1434,-5.1434,-5.1434,-5.1434,-5.0986,-5.0986,-5.112,-5.1205,-5.1291,-5.1325,-5.1467,-5.1523,-5.1574,-5.1605,-5.1582,-5.1536,-5.1522,-5.1525,-5.1507,-5.1473,-5.1703,-5.1703,-5.1703,-5.1103,-5.1112,-5.1229,-5.128,-5.1364,-5.1435,-5.1569,-5.1667,-5.1717,-5.1715,-5.1629,-5.1617,-5.1543,-5.1518,-5.151,-5.1481,-5.1419,0,0]},{"header":{"parameterUnit":"m.s-1","parameterCategory":1,"la1":30.2992,"la2":30.254,"lo1":-89.0895,"lo2":-89.0443,"dy":0.0025,"dx":0.0025,"nx":19,"ny":19,"refTime":"2026-04-02T09:00:00:Z","depth":0,"parameterNumber":3,"parameterNumberName":"V-component_of_WINDS"},"data":[0,0,0,3.4608,3.4611,3.4795,3.4796,3.5012,3.5014,0,0,0,0,0,0,0,0,0,0,0,3.4542,3.4543,3.4608,3.4612,3.4795,3.4796,3.5012,3.5014,0,0,0,0,0,0,0,0,0,0,0,3.4542,3.4543,3.4545,3.4612,3.4795,3.4796,3.5011,3.4879,0,0,0,0,0,0,0,0,0,0,3.4705,3.4633,3.4543,3.4545,3.4613,3.4794,3.4796,3.4873,3.4888,3.4921,0,3.4948,0,3.4984,3.5027,3.5028,0,0,0,3.462,3.4621,3.4681,3.4545,3.4615,3.4794,3.4715,3.4882,3.4898,3.494,3.4951,3.496,3.4988,3.5028,3.5029,3.5199,3.5199,0,0,3.461,3.4569,3.467,3.4691,3.4661,3.4709,3.472,3.4892,3.4901,3.4952,3.4965,3.4991,3.503,3.5031,3.5199,3.5199,0,0,0,3.4575,3.4561,3.4618,3.4681,3.4716,3.4714,3.4727,3.4893,3.4915,3.4968,3.4994,3.5031,3.5033,3.5198,3.5199,3.5181,0,0,0,3.457,3.4541,3.4613,3.4589,3.4712,3.4807,3.4724,3.4903,3.4924,3.4993,3.5031,3.5035,3.5198,3.5199,3.5181,3.5179,0,0,0,3.4534,3.4537,3.456,3.4587,3.4664,3.4805,3.4837,3.4909,3.494,3.5028,3.5036,3.5198,3.5198,3.518,3.5179,3.5214,0,0,0,3.4484,3.4539,3.4559,3.4632,3.4663,3.4792,3.4836,3.4935,3.5008,3.5032,3.5198,3.5199,3.518,3.5178,3.5213,3.5236,3.5242,0,0,3.4531,3.4543,3.459,3.4613,3.4729,3.4768,3.4882,3.4987,3.5032,3.5141,3.5146,3.5181,3.5179,3.5214,3.5287,3.5291,0,0,0,3.4591,3.4623,3.4663,3.4732,3.4815,3.4887,3.498,3.5019,3.5114,3.508,3.5204,3.5204,3.5226,3.5239,3.5243,3.5265,3.5203,3.5203,3.5203,3.4597,3.4654,3.4735,3.4815,3.4882,3.4979,3.5039,3.5109,3.5144,3.5173,3.5206,3.5243,3.5257,3.526,3.5283,3.5222,3.5222,3.5222,3.5222,3.4672,3.4728,3.4778,3.4875,3.4935,3.5017,3.5114,3.5137,3.5223,3.5222,3.5245,3.524,3.5263,3.5286,3.5221,3.5221,3.5221,3.5221,3.5222,3.4683,3.472,3.4769,3.4878,3.4956,3.5035,3.5116,3.5168,3.5217,3.5239,3.5281,3.5281,3.5289,3.5255,3.5255,3.5256,3.5256,3.5256,3.5256,3.4675,3.4732,3.4794,3.489,3.4943,3.502,3.5121,3.5175,3.5248,3.5279,3.528,3.5314,3.5254,3.5239,3.5258,3.5258,3.5257,3.5257,3.5257,3.4731,3.4728,3.4823,3.4877,3.4996,3.5072,3.5138,3.5244,3.5297,3.5336,3.5367,3.5314,3.5329,3.5327,3.5315,3.5353,3.5353,3.5353,3.5353,3.4741,3.4755,3.4867,3.495,3.5038,3.5108,3.5217,3.5298,3.538,3.5416,3.5418,3.5406,3.5401,3.542,3.5416,3.5405,3.5466,3.5466,3.5466,3.4779,3.4805,3.4887,3.4969,3.5067,3.515,3.5255,3.5349,3.5442,3.5472,3.5446,3.5442,3.5423,3.5413,3.5441,3.5433,3.5414,0,0]}]]